Weather History for Springfield, VT

Change the Weather History Date:

Thursday, July 12, 2012

  Actual Average Record
Temperature  
Mean Temperature 74 °F 69 °F  
Max Temperature 93 °F 81 °F 93 °F (2012)
Min Temperature 54 °F 57 °F 43 °F (2002)
Cooling Degree Days 9 5  
Month to date cooling degree days 80 53  
Year to date cooling degree days 230 129  
Since 1 June cooling degree days 169 117  
Growing Degree Days 24 (Base 50)    
Moisture  
Dew Point 54 °F    
Average Humidity 58    
Maximum Humidity 93    
Minimum Humidity 22    
Precipitation  
Precipitation 0.00 in 0.15 in 2.13 in (2006)
Month to date precipitation 0.40 1.61  
Year to date precipitation 16.83 21.77  
Sea Level Pressure  
Sea Level Pressure 30.16 in    
Wind  
Wind Speed 2 mph (West)    
Max Wind Speed 3 mph    
Max Gust Speed 3 mph    
Visibility 10 miles    
Events      
T = Trace of Precipitation, MM = Missing Value Source: NWS Daily Summary

Daily Weather History Graph

Daily Weather History Graph

Search for Another Location

Airport:

Trip Planner

Search our weather history database for the weather conditions in past years. The results will help you decide how hot, cold, wet, or windy it might be!

Date:

Astronomy

Jul. 12, 2012 Rise Set
Actual Time 5:21 AM EDT 8:29 PM EDT
Civil Twilight 4:46 AM EDT 9:04 PM EDT
Nautical Twilight 4:02 AM EDT 9:48 PM EDT
Astronomical Twilight 3:08 AM EDT 10:42 PM EDT
Moon 12:27 AM EDT (7/12) 2:57 PM EDT (7/12)
Length of Visible Light 16h 17m
Length of Day
15h 08m
Waning Crescent, 35% of the Moon is Illuminated
Jul 12
Waning Crescent
Jul 19
New
Jul 26
First Quarter
Aug 1
Full
Aug 9
Last Quarter

Hourly Weather History & Observations

Time (EDT) Temp. Heat Index Dew Point Humidity Pressure Visibility Wind Dir Wind Speed Gust Speed Precip Events Conditions
12:54 AM 59.0 °F - 54.0 °F 83% 30.19 in 10.0 mi Calm Calm - N/A   Clear
1:54 AM 57.9 °F - 54.0 °F 87% 30.19 in 10.0 mi Calm Calm - N/A   Partly Cloudy
2:54 AM 57.0 °F - 53.1 °F 87% 30.19 in 10.0 mi Calm Calm - N/A   Clear
3:54 AM 55.9 °F - 53.1 °F 90% 30.19 in 10.0 mi Calm Calm - N/A   Clear
4:54 AM 55.9 °F - 52.0 °F 87% 30.21 in 10.0 mi Calm Calm - N/A   Scattered Clouds
5:54 AM 57.0 °F - 53.1 °F 87% 30.22 in 10.0 mi Calm Calm - N/A   Scattered Clouds
6:54 AM 60.1 °F - 54.0 °F 80% 30.22 in 10.0 mi Calm Calm - N/A   Partly Cloudy
7:54 AM 64.0 °F - 55.0 °F 73% 30.21 in 10.0 mi Calm Calm - N/A   Clear
8:54 AM 73.0 °F - 57.9 °F 59% 30.20 in 10.0 mi Calm Calm - N/A   Clear
9:54 AM 78.1 °F - 59.0 °F 52% 30.19 in 10.0 mi Calm Calm - N/A   Clear
10:54 AM 84.0 °F 84.0 °F 60.1 °F 44% 30.18 in 10.0 mi Variable 4.6 mph - N/A   Clear
11:54 AM 87.1 °F 85.3 °F 55.0 °F 33% 30.16 in 10.0 mi Variable 3.5 mph - N/A   Partly Cloudy
12:54 PM 90.0 °F - 46.9 °F 23% 30.15 in 10.0 mi Variable 3.5 mph - N/A   Partly Cloudy
1:54 PM 91.9 °F - 48.0 °F 22% 30.13 in 10.0 mi WNW 9.2 mph - N/A   Clear
2:54 PM 93.0 °F - 48.9 °F 22% 30.13 in 10.0 mi West 8.1 mph - N/A   Clear
3:54 PM 91.9 °F - 48.9 °F 23% 30.11 in 10.0 mi Variable 5.8 mph - N/A   Partly Cloudy
4:54 PM 91.9 °F - 48.9 °F 23% 30.10 in 10.0 mi WNW 5.8 mph - N/A   Clear
5:54 PM 91.0 °F - 50.0 °F 24% 30.09 in 10.0 mi WSW 6.9 mph - N/A   Clear
6:54 PM 90.0 °F - 52.0 °F 27% 30.10 in 10.0 mi West 4.6 mph - N/A   Clear
7:54 PM 81.0 °F 81.1 °F 57.9 °F 45% 30.10 in 10.0 mi Calm Calm - N/A   Clear
10:54 PM 68.0 °F - 59.0 °F 73% 30.14 in 10.0 mi Calm Calm - N/A   Clear
11:54 PM 64.9 °F - 59.0 °F 81% 30.16 in 10.0 mi Calm Calm - N/A   Clear